Station NWCL1 - 8761927 - New Canal Station, LA Image indicating link to RSS feed of recent meteorological observations for station NWCL1


Conditions at NWCL1 as of
(6:18 am CDT)
1118 GMT on 05/22/2024:
     

Click on the graph icon in the table below to see a time series plot of the last five days of that observation.

5-day plot - Wind Direction Wind Direction (WDIR): S ( 170 deg true )
5-day plot - Wind Speed Wind Speed (WSPD): 1.9 kts
5-day plot - Wind Gust Wind Gust (GST): 2.9 kts
5-day plot - Atmospheric Pressure Atmospheric Pressure (PRES):29.96 in
5-day plot - Air Temperature Air Temperature (ATMP): 76.1 °F
5-day plot - Water Temperature Water Temperature (WTMP): 82.2 °F
5-day plot - Wind Speed at 10 Meters Wind Speed at 10 meters (WSPD10M): 1.9 kts
5-day plot - Wind Speed at 20 Meters Wind Speed at 20 meters (WSPD20M): 1.9 kts
5-day plot -  Wind Speed, Wind Gust and Atmospheric Pressure Combined plot of Wind Speed, Gust, and Air Pressure
NOS Water Level Observation Network Water Level
Previous observations
TIME
(CDT)
5-day plot - Wind Direction
WDIR
 
5-day plot - Wind Speed
WSPD
kts
5-day plot - Wind Gust
GST
kts
5-day plot - Wave Height
WVHT
ft
5-day plot - Dominant Wave Period
DPD
sec
5-day plot - Average Wave Period
APD
sec
5-day plot - Mean Wave Direction
MWD
 
5-day plot - Atmospheric Pressure
PRES
in
5-day plot - Pressure Tendency
PTDY
in
5-day plot - Air Temperature
ATMP
°F
5-day plot - Water Temperature
WTMP
°F
5-day plot - Dew Point
DEWP
°F
5-day plot - Salinity
SAL
psu
5-day plot - Visibility
VIS
nmi
5-day plot - Tide (above MLLW)
TIDE
ft
2024-05-22 06:12 am S 2.9 5.1----29.95- 76.3 82.2----
2024-05-22 06:06 amSSE 2.9 6.0----29.95- 76.1 82.4----
2024-05-22 06:00 amSSE 1.9 7.0----29.94+0.02 76.1 82.4----
2024-05-22 05:54 amSSE 5.1 9.9----29.92- 75.9 82.4----
2024-05-22 05:48 amSSE 4.1 6.0----29.92- 75.9 82.4----
2024-05-22 05:42 amSSE 5.1 8.0----29.92- 75.6 82.4----
2024-05-22 05:36 amSSE 5.1 8.0----29.92- 75.4 82.4----
2024-05-22 05:30 amSSE 4.1 7.0----29.93- 75.0 82.4----
2024-05-22 05:24 amSSE 2.9 6.0----29.93- 75.0 82.4----
2024-05-22 05:18 am SE 2.9 5.1----29.94- 75.0 82.4----
2024-05-22 05:12 amSSE 2.9 6.0----29.94- 75.0 82.4----
2024-05-22 05:06 amSSE 1.9 5.1----29.94- 75.0 82.4----
2024-05-22 05:00 amSSE 2.9 6.0----29.93+0.00 75.2 82.4----
2024-05-22 04:54 amSSE 4.1 6.0----29.93- 75.2 82.4----
2024-05-22 04:48 amSSE 2.9 5.1----29.93- 75.2 82.4----
2024-05-22 04:42 am SE 1.9 5.1----29.93- 75.2 82.6----
2024-05-22 04:36 am SE 2.9 6.0----29.93- 75.2 82.6----
2024-05-22 04:30 am SE 1.9 7.0----29.93- 75.2 82.6----
2024-05-22 04:24 am SE 2.9 6.0----29.93- 75.4 82.6----
2024-05-22 04:18 amSSE 4.1 6.0----29.93- 75.4 82.6----
2024-05-22 04:12 am SE 1.9 5.1----29.93- 75.4 82.6----
2024-05-22 04:06 am SE 1.9 6.0----29.93- 75.4 82.6----
2024-05-22 04:00 am SE 2.9 5.1----29.94-0.01 75.4 82.6----
2024-05-22 03:54 amSSE 2.9 5.1----29.93- 75.6 82.6----
2024-05-22 03:48 amSSE 4.1 6.0----29.93- 75.6 82.6----
2024-05-22 03:42 amSSE 4.1 8.0----29.93- 75.6 82.6----
2024-05-22 03:36 amSSE 2.9 7.0----29.93- 75.6 82.8----
2024-05-22 03:30 amSSE 4.1 8.0----29.92- 75.6 82.8----
2024-05-22 03:24 amSSE 2.9 7.0----29.92- 75.7 82.8----
2024-05-22 03:18 amSSE 5.1 8.0----29.92- 75.7 82.8----
2024-05-22 03:12 amSSE 5.1 8.0----29.92- 75.7 82.8----
2024-05-22 03:06 amSSE 5.1 8.9----29.92- 75.7 82.8----
2024-05-22 03:00 amSSE 7.0 9.9----29.92-0.03 75.9 82.8----
2024-05-22 02:54 amSSE 4.1 8.9----29.92- 75.9 82.8----
2024-05-22 02:48 am SE 4.1 8.0----29.93- 75.9 82.9----
2024-05-22 02:42 amSSE 5.1 8.0----29.93- 75.9 82.9----
2024-05-22 02:36 am SE 4.1 6.0----29.93- 75.7 82.9----
2024-05-22 02:30 am SE 2.9 7.0----29.93- 75.7 82.9----
2024-05-22 02:24 am SE 4.1 6.0----29.93- 75.7 82.9----
2024-05-22 02:18 am SE 2.9 5.1----29.93- 75.7 82.9----
2024-05-22 02:12 amSSE 2.9 6.0----29.94- 75.6 82.9----
2024-05-22 02:06 am SE 2.9 5.1----29.94- 75.6 82.9----
2024-05-22 02:00 am SE 2.9 4.1----29.94-0.01 75.6 82.9----
2024-05-22 01:54 am SE 2.9 5.1----29.94- 75.6 82.9----
2024-05-22 01:48 am SE 2.9 5.1----29.94- 75.6 82.9----
2024-05-22 01:42 am SE 1.9 5.1----29.94- 75.7 82.9----
2024-05-22 01:36 am SE 1.9 5.1----29.94- 75.7 82.9----
2024-05-22 01:30 am SE 1.9 2.9----29.95- 75.7 82.9----
2024-05-22 01:24 am SE 1.0 4.1----29.95- 75.7 82.9----
2024-05-22 01:18 am SE 1.9 4.1----29.95- 75.9 83.1----
2024-05-22 01:12 am SE 1.9 4.1----29.95- 75.9 83.1----
2024-05-22 01:06 am SE 1.9 4.1----29.95- 75.9 83.1----
2024-05-22 01:00 am SE 1.9 4.1----29.95+0.00 76.1 83.1----
2024-05-22 12:54 am SE 1.0 4.1----29.95- 76.1 83.1----
2024-05-22 12:48 am SE 1.0 4.1----29.95- 76.3 83.1----
2024-05-22 12:42 am SE 1.0 2.9----29.95- 76.5 83.1----
2024-05-22 12:36 am SE 1.0 4.1----29.95- 76.5 83.1----
2024-05-22 12:30 am SE 1.9 5.1----29.96- 76.5 83.1----
2024-05-22 12:24 am SE 1.0 4.1----29.95- 76.8 83.1----
2024-05-22 12:18 am SE 1.9 5.1----29.95- 76.8 83.1----
2024-05-22 12:12 amSSE 2.9 6.0----29.95- 76.8 83.3----
2024-05-22 12:06 am SE 1.9 6.0----29.95- 77.0 83.3----
2024-05-22 12:00 am SE 2.9 6.0----29.95+0.01 77.0 83.3----
2024-05-21 11:54 pm SE 2.9 5.1----29.95- 77.2 83.3----
2024-05-21 11:48 pm SE 1.9 5.1----29.95- 77.2 83.3----
2024-05-21 11:42 pm SE 1.9 6.0----29.95- 77.4 83.3----
2024-05-21 11:36 pm SE 1.0 5.1----29.95- 77.4 83.3----
2024-05-21 11:30 pmSSE 4.1 7.0----29.95- 77.5 83.3----
2024-05-21 11:24 pm SE 1.9 6.0----29.95- 77.5 83.3----
2024-05-21 11:18 pm SE 2.9 5.1----29.95- 77.7 83.3----
2024-05-21 11:12 pm SE 1.9 4.1----29.95- 77.7 83.3----
2024-05-21 11:06 pm SE 1.9 5.1----29.95- 77.9 83.3----
2024-05-21 11:00 pm SE 1.9 5.1----29.95+0.01 78.1 83.3----
2024-05-21 10:54 pmSSE 1.0 6.0----29.96- 78.1 83.3----
2024-05-21 10:48 pm SE 1.9 8.0----29.96- 78.1 83.3----
2024-05-21 10:42 pmSSE 1.9 5.1----29.96- 77.9 83.5----
2024-05-21 10:36 pm SE 4.1 6.0----29.96- 77.9 83.5----
2024-05-21 10:30 pmSSE 2.9 6.0----29.96- 78.1 83.5----
2024-05-21 10:24 pmSSE 1.9 6.0----29.96- 78.3 83.5----
2024-05-21 10:18 pmSSE 1.9 7.0----29.96- 78.3 83.5----
2024-05-21 10:12 pmSSE 4.1 5.1----29.96- 78.3 83.5----
2024-05-21 10:06 pm SE 4.1 8.0----29.96- 78.4 83.5----
2024-05-21 10:00 pmSSE 2.9 6.0----29.95+0.03 78.4 83.5----
2024-05-21 09:54 pm SE 1.9 4.1----29.95- 78.6 83.7----
2024-05-21 09:48 pmSSE 1.0 5.1----29.95- 78.6 83.7----
2024-05-21 09:42 pm- 0.0 5.1----29.95- 78.8 83.7----
2024-05-21 09:36 pmSSE 1.9 4.1----29.95- 78.8 83.7----
2024-05-21 09:30 pm SE 1.0 6.0----29.94- 78.8 83.7----
2024-05-21 09:24 pm SE 2.9 6.0----29.94- 78.8 83.7----
2024-05-21 09:18 pm SE 2.9 8.0----29.94- 79.0 83.7----
2024-05-21 09:12 pmSSE 4.1 7.0----29.94- 79.0 83.8----
2024-05-21 09:06 pmSSE 2.9 6.0----29.94- 79.3 83.8----
2024-05-21 09:00 pmSSE 4.1 7.0----29.94+0.03 79.3 83.8----
2024-05-21 08:54 pm SE 2.9 6.0----29.94- 79.5 83.8----
2024-05-21 08:48 pm SE 2.9 8.0----29.94- 79.7 83.8----
2024-05-21 08:42 pmSSE 2.9 8.9----29.93- 79.7 83.8----
2024-05-21 08:36 pm SE 1.9 5.1----29.93- 79.9 83.8----
2024-05-21 08:30 pmSSE 2.9 9.9----29.94- 80.1 83.8----
2024-05-21 08:24 pmSSE 4.1 7.0----29.93- 80.1 84.0----
2024-05-21 08:18 pm SE 2.9 8.0----29.93- 80.2 84.0----
2024-05-21 08:12 pm SE 6.0 11.1----29.94- 80.4 84.0----
2024-05-21 08:06 pmSSE 2.9 11.1----29.94- 80.6 84.2----
2024-05-21 08:00 pmSSE 4.1 8.9----29.94+0.02 80.8 84.2----
2024-05-21 07:54 pmSSE 2.9 8.9----29.94- 81.0 84.2----
2024-05-21 07:48 pm SE 1.9 8.9----29.93- 81.1 84.2----
2024-05-21 07:42 pm SE 4.1 8.9----29.93- 81.5 84.2----
2024-05-21 07:36 pm SE 5.1 8.9----29.93- 81.5 84.2----
2024-05-21 07:30 pm SE 2.9 8.9----29.92- 81.9 84.4----
2024-05-21 07:24 pm SE 4.1 7.0----29.92- 81.9 84.6----
2024-05-21 07:18 pm SE 5.1 8.0----29.92- 82.2 84.6----
2024-05-21 07:12 pm SE 2.9 8.9----29.92- 82.6 84.6----
2024-05-21 07:06 pmSSE 2.9 8.9----29.92- 83.1 84.6----
2024-05-21 07:00 pm S 5.1 8.0----29.93+0.01 83.5 84.6----
2024-05-21 06:54 pm SE 2.9 8.0----29.92- 83.8 84.7----
2024-05-21 06:48 pmSSE 4.1 8.9----29.91- 83.7 84.7----
2024-05-21 06:42 pm SE 4.1 9.9----29.91- 84.4 84.7----
2024-05-21 06:36 pmSSE 7.0 9.9----29.91- 83.8 84.7----
2024-05-21 06:30 pm SE 4.1 8.0----29.91- 84.6 84.7----
2024-05-21 06:24 pm SE 1.9 8.0----29.91- 84.7 84.9----
2024-05-21 06:18 pmSSE 6.0 8.9----29.91- 84.7 84.9----
2024-05-21 06:12 pm SE 1.9 6.0----29.91- 85.5 85.1----
2024-05-21 06:06 pm SE 1.9 8.9----29.91- 85.6 85.1----
2024-05-21 06:00 pm SE 1.9 8.9----29.91-0.02 85.8 85.1----
2024-05-21 05:54 pmSSE 2.9 6.0----29.92- 85.8 85.1----
2024-05-21 05:48 pm SE 1.0 8.0----29.92- 86.2 85.1----
2024-05-21 05:42 pmSSE 1.9 8.9----29.92- 85.5 85.1----
2024-05-21 05:36 pmESE 1.9 9.9----29.92- 86.4 85.1----
2024-05-21 05:30 pmSSE 1.9 8.0----29.92- 86.0 85.1----
2024-05-21 05:24 pmSSE 1.9 8.0----29.92- 86.2 85.1----
2024-05-21 05:18 pmSSE 5.1 13.0----29.92- 85.8 84.9----
2024-05-21 05:12 pm- 0.0 12.0----29.92- 85.8 84.7----
2024-05-21 05:06 pmSSE 6.0 9.9----29.92- 86.0 85.1----
2024-05-21 05:00 pm SE 2.9 9.9----29.92-0.03 86.0 85.3----
2024-05-21 04:54 pmSSE 2.9 9.9----29.92- 86.2 85.1----
2024-05-21 04:48 pmSSE 8.0 12.0----29.92- 85.6 85.1----
2024-05-21 04:42 pmSSE 2.9 12.0----29.91- 85.8 85.3----
2024-05-21 04:36 pmSSE 7.0 12.0----29.92- 85.6 85.5----
2024-05-21 04:30 pm SE 4.1 11.1----29.92-- 85.3----
2024-05-21 04:24 pmSSE 7.0 11.1----29.92-- 85.3----
2024-05-21 04:18 pmESE 5.1 12.0----29.92-- 85.3----
2024-05-21 04:12 pm SE 4.1 9.9----29.91-- 85.3----
2024-05-21 04:06 pmSSE 5.1 11.1----29.92-- 85.3----
2024-05-21 04:00 pmSSE 1.9 8.0----29.92-0.05 87.1 85.1----
2024-05-21 03:54 pmSSE 6.0 9.9----29.92- 85.8 85.1----
2024-05-21 03:48 pmSSE 7.0 12.0----29.92-- 85.3----
2024-05-21 03:42 pm SE 2.9 12.0----29.92-- 85.1----
2024-05-21 03:36 pm SE 6.0 9.9----29.92-- 85.1----
2024-05-21 03:30 pm SE 1.9 6.0----29.92-------
2024-05-21 03:24 pm SE 4.1 9.9----29.92-------
2024-05-21 03:18 pmSSE 2.9 8.9----29.93-- 85.1----
2024-05-21 03:12 pm SE 2.9 9.9----29.93-- 84.7----
2024-05-21 03:06 pmESE 1.9 7.0----29.93-- 84.9----
2024-05-21 03:00 pmSSE 5.1 11.1----29.93-0.03 86.7 85.1----
2024-05-21 02:54 pmSSE 1.9 6.0----29.93- 87.4 84.7----
2024-05-21 02:48 pmESE 1.0 8.9----29.94-- 84.6----
2024-05-21 02:42 pmSSE 7.0 12.0----29.94-- 84.9----
2024-05-21 02:36 pm SE 6.0 12.0----29.94-- 84.9----
2024-05-21 02:30 pmSSE 7.0 11.1------- 84.7----
2024-05-21 02:24 pm SE 4.1 8.9------- 84.6----
2024-05-21 02:18 pmSSE 1.9 8.0----29.94- 87.3 84.7----
2024-05-21 02:12 pmESE 1.9 12.0----29.95- 87.3 84.7----
2024-05-21 02:06 pmSSE 5.1 11.1----29.95- 86.9 84.6----
2024-05-21 02:00 pm SE 2.9 8.9----29.95-0.02 86.7 84.6----
2024-05-21 01:54 pm SE 2.9 9.9----29.95- 86.9 84.6----
2024-05-21 01:48 pmSSE 6.0 12.0----29.95- 86.4 84.6----
2024-05-21 01:42 pm SE 5.1 13.0----29.95- 85.6 84.4----
2024-05-21 01:36 pm SE 1.9 8.9----29.95- 86.5 84.2----
2024-05-21 01:30 pm SE 6.0 11.1----29.95- 86.2 84.2----
2024-05-21 01:24 pm SW 2.9 9.9----29.96- 85.1 84.6----
2024-05-21 01:18 pmSSE 6.0 12.0----29.96- 85.8 84.4----
2024-05-21 01:12 pm SE 5.1 8.9----29.96- 85.3 84.4----
2024-05-21 01:06 pmSSE 6.0 12.0----29.96- 86.0 84.4----
2024-05-21 01:00 pm SE 4.1 8.9----29.96+0.00 86.4 84.4----
2024-05-21 12:54 pm SE 5.1 9.9----29.96- 85.8 84.2----
2024-05-21 12:48 pm SE 1.9 8.0----29.96- 86.0 84.2----
2024-05-21 12:42 pm S 2.9 7.0----29.97- 85.8 84.2----
2024-05-21 12:36 pmSSE 4.1 9.9----29.97- 85.3 84.2----
2024-05-21 12:30 pm SE 1.9 9.9----29.96- 86.2 84.2----
2024-05-21 12:24 pmSSE 6.0 9.9----29.96- 84.9 84.0----
2024-05-21 12:18 pmSSE 2.9 9.9----29.96- 86.0 84.0----
2024-05-21 12:12 pmSSE 7.0 11.1----29.96- 85.3 83.8----
2024-05-21 12:06 pmSSE 1.9 9.9----29.96- 85.8 83.8----
2024-05-21 12:00 pm SE 2.9 12.0----29.96+0.01 85.3 83.8----
2024-05-21 11:54 amSSE 7.0 12.0----29.97- 85.3 83.7----
2024-05-21 11:48 amSSE 6.0 9.9----29.97- 84.9 83.7----
2024-05-21 11:42 amSSE 2.9 9.9----29.97- 85.1 83.7----
2024-05-21 11:36 am SE 7.0 11.1----29.97- 84.0 83.5----
2024-05-21 11:30 amSSE 6.0 13.0----29.97- 84.4 83.3----
2024-05-21 11:24 am S 7.0 11.1----29.97- 83.7 83.5----
2024-05-21 11:18 amESE 1.9 7.0----29.97- 85.5 83.3----
2024-05-21 11:12 am SE 1.9 8.9----29.97- 85.1 83.1----
2024-05-21 11:06 am SE 2.9 9.9----29.97- 84.2 83.1----
2024-05-21 11:00 am SE 1.9 12.0----29.97+0.04 85.1 83.1----
2024-05-21 10:54 amSSE 6.0 9.9----29.98- 84.0 82.9----
2024-05-21 10:48 amSSW 1.9 9.9----29.98- 83.8 82.9----
2024-05-21 10:42 am SE 2.9 8.0----29.97- 85.1 82.9----
2024-05-21 10:36 am SE 5.1 7.0----29.97- 84.2 83.1----
2024-05-21 10:30 am SE 1.9 11.1----29.97- 84.7 82.9----
2024-05-21 10:24 am SE 4.1 8.0----29.96- 84.6 82.9----
2024-05-21 10:18 am SE 2.9 9.9----29.96- 84.4 82.9----
2024-05-21 10:12 am SE 5.1 11.1----29.96- 83.7 82.9----
2024-05-21 10:06 am SE 5.1 9.9----29.96- 83.1 82.9----
2024-05-21 10:00 amSSE 4.1 12.0----29.96+0.04 83.3 82.8----
2024-05-21 09:54 am SE 5.1 8.9----29.96- 82.9 82.8----
2024-05-21 09:48 amSSE 4.1 11.1----29.96- 82.9 82.6----
2024-05-21 09:42 amSSE 2.9 12.0----29.96- 82.6 82.6----
2024-05-21 09:36 amSSE 7.0 11.1----29.96- 82.4 82.4----
2024-05-21 09:30 amSSE 7.0 12.0----29.96- 81.9 82.4----
2024-05-21 09:24 amSSE 5.1 9.9----29.96- 82.0 82.4----
2024-05-21 09:18 amSSE 2.9 8.0----29.96- 82.2 82.4----
2024-05-21 09:12 am SE 2.9 12.0----29.95- 81.5 82.2----
2024-05-21 09:06 am SW 1.9 9.9----29.95- 81.5 82.2----
2024-05-21 09:00 am SE 4.1 8.9----29.95+0.05 81.1 82.2----
2024-05-21 08:54 am SE 4.1 8.0----29.95- 81.1 82.2----
2024-05-21 08:48 amSSE 4.1 8.9----29.95- 81.0 82.2----
2024-05-21 08:42 am SE 4.1 7.0----29.95- 80.8 82.2----
2024-05-21 08:36 amSSE 2.9 8.9----29.95- 80.2 82.2----
2024-05-21 08:30 amSSE 2.9 8.0----29.95- 80.1 82.0----
2024-05-21 08:24 amSSE 5.1 8.9----29.94- 79.9 82.0----
2024-05-21 08:18 amSSE 1.9 5.1----29.94- 80.1 82.0----
2024-05-21 08:12 am SE 1.9 7.0----29.93- 79.5 82.0----
2024-05-21 08:06 am SE 2.9 8.0----29.93- 79.3 82.0----
2024-05-21 08:00 am- 0.0 6.0----29.93+0.03 79.3 82.0----
2024-05-21 07:54 amSSE 1.0 5.1----29.93- 79.2 82.0----
2024-05-21 07:48 am SE 1.0 7.0----29.93- 78.6 82.0----
2024-05-21 07:42 am SE 2.9 7.0----29.93- 78.4 82.0----
2024-05-21 07:36 amSSE 1.9 5.1----29.93- 78.4 82.0----
2024-05-21 07:30 amSSE 1.9 5.1----29.93- 78.3 82.0----
2024-05-21 07:24 am- 0.0 2.9----29.93- 78.4 82.0----
2024-05-21 07:18 am- 0.0 2.9----29.92- 78.1 82.0----
2024-05-21 07:12 am- 0.0 2.9----29.92- 77.5 82.0----
2024-05-21 07:06 am SE 1.0 4.1----29.92- 77.2 82.0----
2024-05-21 07:00 am SE 1.0 2.9----29.92+0.02 77.0 82.0----
2024-05-21 06:54 am- 0.0 1.9----29.92- 77.0 82.0----